Location: ???????
(54.6339°N, 39.4245°E)
Time: 02:59:11
(UTC+00:00)

ARIANE 6 FM1 Upper Stage - Pass Details

Date: 19 May 2025
Orbit: 531 x 610 km, 62.0° (Epoch: 14 June)

Event Time Altitude Azimuth Distance (km) Brightness Sun altitude
Rises 23:42:02 0° 304° (NW) 2,708 6.2 -9.3°
Reaches altitude 10° 23:44:17 10° 310° (NW) 1,823 5.4 -9.2°
Maximum altitude 23:48:16 48° 26° (NNE) 730 3.8 -8.8°
Drops below altitude 10° 23:52:21 10° 102° (ESE) 1,861 5.7 -8.5°
Sets 23:54:40 0° 108° (ESE) 2,770 6.5 -8.3°
